Sun Valley, CA

12:23 AM PDT on October 01, 2016 (GMT -0700)
Burbank-Glendale-Pasadena

Weather History for KBUR - October, 2013

Change the Weather History Date:

Monday, October 21, 2013

  Actual Average Record
Temperature  
Mean Temperature 68 °F 66 °F  
Max Temperature 81 °F 79 °F 101 °F (2003)
Min Temperature 54 °F 53 °F 41 °F (1949)
Degree Days  
Heating Degree Days 0 2  
Month to date heating degree days 13 23  
Since 1 July heating degree days 13 29  
Cooling Degree Days 3 3  
Month to date cooling degree days 115 82  
Year to date cooling degree days 1945 1213  
Growing Degree Days 18 (Base 50)    
Moisture  
Dew Point 49 °F    
Average Humidity 53    
Maximum Humidity 78    
Minimum Humidity 28    
Precipitation  
Precipitation 0.00 in 0.03 in 0.44 in (1941)
Month to date precipitation 0.10 0.60  
Year to date precipitation 2.71 13.47  
Since 1 July precipitation 0.11  
Sea Level Pressure  
Sea Level Pressure 29.92 in    
Wind  
Wind Speed 3 mph (SE)    
Max Wind Speed 9 mph    
Max Gust Speed 16 mph    
Visibility 8 miles    
Events      
T = Trace of Precipitation, MM = Missing Value Source: NWS Daily Summary

Daily Weather History Graph

Daily Weather History Graph

Search for Another Location

Airport or City:

Trip Planner

Search our weather history database for the weather conditions in past years. The results will help you decide how hot, cold, wet, or windy it might be!

Date:

Astronomy

Oct. 21, 2013 Rise Set
Actual Time 7:03 AM PDT 6:11 PM PDT
Civil Twilight 6:38 AM PDT 6:37 PM PDT
Nautical Twilight 6:09 AM PDT 7:06 PM PDT
Astronomical Twilight 5:40 AM PDT 7:35 PM PDT
Moon 8:14 PM PDT (10/21) 9:37 AM PDT (10/21)
Length of Visible Light 11h 58m
Length of Day
11h 07m
Waning Gibbous, 92% of the Moon is Illuminated
Oct 21
Waning Gibbous
Oct 26
Last Quarter
Nov 3
New
Nov 9
First Quarter
Nov 17
Full

Hourly Weather History & Observations

Time (PDT) Temp. Dew Point Humidity Pressure Visibility Wind Dir Wind Speed Gust Speed Precip Events Conditions
12:53 AM 60.1 °F 50.0 °F 69% 29.91 in 6.0 mi Calm Calm - N/A   Haze
1:53 AM 59.0 °F 48.9 °F 69% 29.92 in 6.0 mi Calm Calm - N/A   Haze
2:53 AM 57.0 °F 48.0 °F 72% 29.92 in 10.0 mi Calm Calm - N/A   Haze
3:53 AM 57.0 °F 48.0 °F 72% 29.91 in 6.0 mi Calm Calm - N/A   Haze
4:53 AM 55.0 °F 46.0 °F 72% 29.91 in 10.0 mi Calm Calm - N/A   Haze
5:53 AM 54.0 °F 46.9 °F 77% 29.92 in 6.0 mi Calm Calm - N/A   Haze
6:53 AM 55.0 °F 46.0 °F 72% 29.93 in 10.0 mi Calm Calm - N/A   Haze
7:53 AM 55.9 °F 46.9 °F 72% 29.94 in 7.0 mi Calm Calm - N/A   Clear
8:53 AM 60.1 °F 48.0 °F 64% 29.95 in 6.0 mi Calm Calm - N/A   Haze
9:53 AM 64.0 °F 48.9 °F 58% 29.95 in 6.0 mi Calm Calm - N/A   Haze
10:53 AM 71.1 °F 44.1 °F 38% 29.94 in 7.0 mi Calm Calm - N/A   Clear
11:53 AM 75.0 °F 44.1 °F 33% 29.94 in 6.0 mi SE 6.9 mph - N/A   Haze
12:53 PM 78.1 °F 48.0 °F 35% 29.91 in 7.0 mi ESE 3.5 mph - N/A   Clear
1:53 PM 81.0 °F 48.9 °F 33% 29.88 in 8.0 mi South 8.1 mph - N/A   Clear
2:53 PM 81.0 °F 48.9 °F 33% 29.87 in 8.0 mi South 6.9 mph - N/A   Clear
3:53 PM 80.1 °F 45.0 °F 29% 29.87 in 10.0 mi South 5.8 mph - N/A   Clear
4:53 PM 78.1 °F 45.0 °F 31% 29.86 in 10.0 mi South 8.1 mph - N/A   Clear
5:53 PM 73.9 °F 43.0 °F 33% 29.87 in 10.0 mi South 5.8 mph - N/A   Clear
6:53 PM 70.0 °F 52.0 °F 53% 29.89 in 10.0 mi SE 8.1 mph - N/A   Clear
7:53 PM 66.9 °F 54.0 °F 63% 29.91 in 10.0 mi ESE 5.8 mph - N/A   Clear
8:53 PM 64.9 °F 55.0 °F 70% 29.93 in 9.0 mi SE 5.8 mph - N/A   Clear
9:53 PM 64.0 °F 55.0 °F 73% 29.94 in 8.0 mi SE 4.6 mph - N/A   Clear
10:53 PM 63.0 °F 55.0 °F 75% 29.95 in 8.0 mi East 3.5 mph - N/A   Clear
11:53 PM 61.0 °F 51.1 °F 70% 29.96 in 9.0 mi Calm Calm - N/A   Clear